This is the latest recevied weather packets stored in our database for station/object KE8DDT-7. If no packets are shown the sender has not sent any weather packets the latest 10 day(s).
| Time | Temp. | Humidity | Pressure | Rain* | Wind** | Luminosity | Snow |
|---|---|---|---|---|---|---|---|
| 1778096799 | 11.11° C | 45% | 1004.6 hPa | 0 mm | - | 236 W/m² | - |
| 1778096499 | 11.11° C | 46% | 1004.5 hPa | 0 mm | - | 264 W/m² | - |
| 1778096199 | 11.11° C | 47% | 1004.5 hPa | 0 mm | - | 315 W/m² | - |
| 1778095899 | 11.11° C | 45% | 1004.6 hPa | 0 mm | - | 309 W/m² | - |
| 1778095599 | 11.11° C | 46% | 1004.6 hPa | 0 mm | - | 279 W/m² | - |
| 1778094999 | 11.11° C | 46% | 1004.6 hPa | 0 mm | - | 325 W/m² | - |
| 1778094698 | 11.11° C | 46% | 1004.7 hPa | 0 mm | - | 367 W/m² | - |
| 1778094399 | 11.11° C | 46% | 1004.8 hPa | 0 mm | - | 346 W/m² | - |
| 1778094099 | 10.56° C | 46% | 1004.8 hPa | 0 mm | - | 327 W/m² | - |
| 1778093798 | 10.56° C | 48% | 1004.8 hPa | 0 mm | - | 343 W/m² | - |
| 1778093499 | 10.56° C | 47% | 1004.8 hPa | 0 mm | - | 260 W/m² | - |
| 1778093199 | 10.56° C | 47% | 1004.6 hPa | 0 mm | - | 239 W/m² | - |
| 1778092898 | 11.11° C | 47% | 1004.6 hPa | 0 mm | - | 302 W/m² | - |
| 1778092608 | 11.11° C | 46% | 1004.4 hPa | 0 mm | - | 311 W/m² | - |
| 1778092298 | 10.56° C | 46% | 1004.4 hPa | 0 mm | - | 410 W/m² | - |
| 1778091998 | 10.56° C | 47% | 1004.4 hPa | 0 mm | - | 506 W/m² | - |
| 1778091699 | 10.56° C | 49% | 1004.5 hPa | 0 mm | - | 526 W/m² | - |
| 1778091399 | 10.56° C | 48% | 1004.4 hPa | 0 mm | - | 299 W/m² | - |
| 1778091098 | 10.56° C | 49% | 1004.5 hPa | 0 mm | - | 236 W/m² | - |
| 1778090798 | 10.56° C | 49% | 1004.4 hPa | 0 mm | - | 304 W/m² | - |
| 1778090499 | 10.56° C | 49% | 1004.5 hPa | 0 mm | - | 371 W/m² | - |
| 1778090198 | 10.56° C | 49% | 1004.4 hPa | 0 mm | - | 381 W/m² | - |
| 1778089899 | 10.56° C | 51% | 1004.5 hPa | 0 mm | - | 1037 W/m² | - |
| 1778089598 | 10.56° C | 51% | 1004.7 hPa | 0 mm | - | 1014 W/m² | - |
| 1778089298 | 10.56° C | 51% | 1004.7 hPa | 0 mm | - | 601 W/m² | - |
* Rain latest hour (hover to see other rain measurements)
** Current wind speed in m/s (hover to see current wind gust speed)